Tracking 30743 objects as of 21-Jun-2025
HD Live streaming from Space Station
objects crossing your sky now

NOAA 16 DEB

Track NOAA 16 DEB now!
10-day predictions


NORAD ID: 41307
Int'l Code: 2000-055HK
Perigee: 673.9 km
Apogee: 686.1 km
Inclination: 98.9 °
Period: 98.2 minutes
Semi major axis: 7051 km
RCS: Unknown
Launch date: September 21, 2000
Source: United States (US)
Launch site: AIR FORCE WESTERN TEST RANGE (AFWTR)

Note: This is SATELLITE DEBRIS
Your satellite tracking list
Your tracking list is empty




NASA's NSSDC Master Catalog

Two Line Element Set (TLE):
1 41307U 00055HK  25172.16119565  .00015899  00000-0  28839-2 0  9990
2 41307  98.9134 328.4097 0008608 227.5700 132.4774 14.66309381491934
Source of the keplerian elements: AFSPC